C/2024 Y1 ( Masek )

Japanese version
Home page
Updated on May 2, 2025

---------------------------------------------------------------------

* Profile

Discovery Date December 25, 2024
Magnitude 15.3 mag
Discoverer Martin Masek (Liberec, Czech Republic)

* Pictures

* Orbital Elements

Epoch 2025 May 5.0 TT = JDT 2460800.5
T 2024 Nov. 26.86442 TT                                 Pike
q   0.8223395            (2000.0)            P               Q
z  +0.0161289      Peri.  238.14250     +0.53690267     -0.11773668
 +/-0.0008858      Node   112.54339     -0.01424737     +0.98880740
e   0.9867365      Incl.   64.75626     -0.84352388     -0.09164061
From 98 observations 2024 Dec. 25-2025 Jan. 19, mean residual 0".6.

* Finding Charts

* Magnitudes Graph

        m1 = 14.5 + 5 log d + 10.0 log r

---------------------------------------------------------------------

The orbital elements are published on M.P.E.C. 2025-C143.
The charts are made with StellaNavigator Ver.11 (AstroArts).
The magnitudes graphs are made with Comet for Windows.

---------------------------------------------------------------------

Copyright(C) Seiichi Yoshida (comet@aerith.net). All rights reserved.